Location: Fauquembergues
(50.6005°N, 2.0987°E)
Time: 20:49:49
(UTC+00:00)

Cosmos 2369 - Pass Details

Date: 14 July 2020
Orbit: 838 x 857 km, 71.0° (Epoch: 14 August)

Event Time Altitude Azimuth Distance (km) Brightness Sun altitude
Rises 01:37:47 0° 330° (NNW) 3,435 7.4 -14.5°
Reaches altitude 10° 01:40:14 10° 331° (NNW) 2,497 6.7 -14.3°
Maximum altitude 01:46:00 85° 61° (ENE) 867 3.8 -13.9°
Drops below altitude 10° 01:51:45 10° 150° (SSE) 2,486 5.8 -13.5°
Sets 01:54:11 0° 151° (SSE) 3,419 6.5 -13.3°
